sat.trackr.live / text

‹ back to catalog

STARLINK-30188

NORAD 57432 · 2023-105C

PAYLOAD ACTIVE UNKNOWN

§ Identity

Operator
Country
US
Launch date
2023-07-24
Launch site
AFETR
Launch vehicle
Mass (kg)
RCS (m²)

Purposes: comms

External: N2YO · Heavens-Above · Gunter

§ Orbital elements

Epoch: 2026-08-17T15:52:10.348032Z

Period
88.40 min
Inclination
42.9932°
Eccentricity
0.0008117
Mean motion
16.28880631 rev/d
Perigee alt
190.2 km
Apogee alt
200.9 km
Semi-major
6,573.7 km
B*
2.8384e-3
RAAN
56.2878°
Arg perigee
289.5267°
Mean anomaly
70.4745°
Rev number
17,033

§ Raw data

STARLINK-301881 57432U 23105C   26229.66123088  .12351474  91234-5  28384-2 0  99952 57432  42.9932  56.2878 0008117 289.5267  70.4745 16.28880631170338

JSON: /api/v1/satellites/57432 · /tle

For live sub-satellite position, see the globe view (requires WebGL).

§ Visibility from observer

Set your observer location to see the next 7 days of passes ≥ 10°. The values pass through the URL so the page stays shareable.

No JS? Fill the form by hand. The geolocation button needs JavaScript.